Regional Weather Roundup
Issued by NWS Newport/Morehead, NC

Current Version | Previous Version | Graphics & Text | Print | Product List | Glossary Off
Versions: 1 2 3 4 5 6 7 8 9 10 11 12 13 14 15 16 17 18 19 20 21 22 23 24 25 26 27 28 29 30 31 32 33 34 35 36 37 38 39 40 41 42 43 44 45 46 47 48 49 50
000 ASUS42 KMHX 261222 RWRMHX WEATHER ROUNDUP FOR EASTERN NORTH CAROLINA NATIONAL WEATHER SERVICE NEWPORT/MOREHEAD CITY NC 700 AM EST FRI DEC 26 2014 NOTE: "FAIR" INDICATES FEW OR NO CLOUDS BELOW 12,000 FEET WITH NO SIGNIFICANT WEATHER AND/OR OBSTRUCTIONS TO VISIBILITY NCZ015>017-031-032-045>047-102-103-261300- NORTH COAST CITY SKY/WX TMP DP RH WIND PRES REMARKS EDENTON N/A 33 32 96 NW3 30.31R ELIZABETH CITY CLEAR 37 32 82 CALM 30.30R KITTY HAWK SUNNY 42 42 97 CALM 30.30R MANTEO CLEAR 36 36 100 CALM 30.30R FOG $$ NCZ045>047-081-094-103-104-261300- CENTRAL COAST CITY SKY/WX TMP DP RH WIND PRES REMARKS FRISCO CLEAR 44 41 89 N5 30.30R SWANQUARTER N/A 37 N/A N/A CALM 30.27S $$ NCZ095-097-098-100-101-261300- SOUTHERN COAST CITY SKY/WX TMP DP RH WIND PRES REMARKS BEAUFORT CLEAR 37 36 96 N3 30.32R CEDAR ISLAND N/A 46 N/A N/A NW5 30.36R JACKSONVILLE CLEAR 36 34 92 CALM 30.31R PINEY ISLAND SUNNY 47 40 76 NW3 30.31R WILMINGTON CLEAR 35 34 96 CALM 30.31R $$ NCZ011>013-027>030-043-044-078>080-089-090>093-098-261300- COASTAL PLAIN CITY SKY/WX TMP DP RH WIND PRES REMARKS AHOSKIE CLEAR 30 29 97 CALM 30.32R CLINTON CLEAR 33 33 100 CALM 30.33R ELIZABETHTOWN PTCLDY 35 34 96 CALM 30.32R GOLDSBORO FOG 32 32 100 CALM 30.31R VSB<1/4 GREENVILLE FOG 32 32 100 CALM 30.33R VSB 1/2 HAVELOCK CLEAR 35 33 92 CALM 30.33R KENANSVILLE CLEAR 31 31 100 CALM 30.33R KINSTON CLEAR 30 30 100 CALM 30.32R NEW BERN FOG 34 31 88 CALM 30.33R VSB<1/4 RICHLANDS CLEAR 32 28 86 CALM 30.32S ROCKY MOUNT CLEAR 31 30 96 CALM 30.32R FOG WASHINGTON CLEAR 32 31 94 CALM 30.32R WHITEVILLE CLEAR 36 35 96 CALM 30.32R $$ AMZ130-135-150-152-154-156-158-170-250-252-270-ANZ085-086-088-633-658-670-261300- MARINE OBSERVATIONS STATION/POSITION TIME TEMP WIND PRES WAVE SWELL AIR SEA DIR/SP/G HT/PER HT/PER (UTC) (F) (DEG/KT/KT) (MB) (FT/S) (FT/S) CHESAPEAKE LIGHT 1200 47 50/ 7/ 8 1026.7 64 E VA BEACH 1200 51 52 20/ 4/ 6 1025.0 3/ 8 2/ 8 DUCK 1200 47 50 360/ 2/ 3 1024.9 2 E DUCK 1200 50 N/A 2/ 8 10 NE DUCK 1200 50 N/A 2/ 8 OREGON INLET 1200 44 54 280/ 1/ 2 1026.1 13E OREGON INLT 1200 50 N/A 3/ 8 2/11 HATTERAS CG 1200 50 56 350/ 6/ 7 1026.4 DIAMOND BUOY 1200 55 1025.5 3/ 7 17 S OCRACOKE NOT AVBL CAPE LOOKOUT 1200 49 360/ 8/ 9 1026.1 BEAUFORT LAB 1200 44 54 350/ 5/ 6 1025.4 30 SE NEW RIVER 1200 56 60 40/ 8/ 10 1026.2 3/ 7 2/ 7 5 SE WRIGHTSVLE NOT AVBL 225 S CAPE HAT 1131 68 71 80/ 8/ 12 1024.1 5/ 7 5/ 7 41 SE CHARLESTON 1200 61 71 50/ 6/ 8 1024.4 2/ 7 2/ 7 $$

USA.gov is the U.S. government's official web portal to all federal, state and local government web resources and services.